Hourly Weather Geron

Today, 20 January, Wednesday

Time Temperature Precipitation Wind Pressure Humidity
00:00 +4°C° 0 mm 3 mps 754 mmHg 81%
01:00 +4°C° 0 mm 3 mps 754 mmHg 80%
02:00 +4°C° 0 mm 3 mps 753 mmHg 79%
03:00 +4°C° 0 mm 3 mps 753 mmHg 78%
04:00 +4°C° 0 mm 3 mps 752 mmHg 78%
05:00 +4°C° 0 mm 4 mps 752 mmHg 79%
06:00 +4°C° 0 mm 4 mps 751 mmHg 79%
07:00 +6°C° 0 mm 4 mps 751 mmHg 78%
08:00 +7°C° 0 mm 5 mps 751 mmHg 77%
09:00 +9°C° 0 mm 5 mps 751 mmHg 75%
10:00 +10°C° 0 mm 6 mps 750 mmHg 70%
11:00 +13°C° 0 mm 6 mps 750 mmHg 64%
12:00 +14°C° 0 mm 7 mps 750 mmHg 59%
13:00 +14°C° 0 mm 7 mps 749 mmHg 60%
14:00 +13°C° 0 mm 6 mps 748 mmHg 61%
15:00 +13°C° 0 mm 6 mps 748 mmHg 62%
16:00 +12°C° 0 mm 5 mps 747 mmHg 69%
17:00 +9°C° 0 mm 5 mps 747 mmHg 75%
18:00 +8°C° 0 mm 4 mps 747 mmHg 81%
19:00 +8°C° 0 mm 4 mps 747 mmHg 80%
20:00 +8°C° 0 mm 5 mps 747 mmHg 80%
21:00 +8°C° 0 mm 5 mps 747 mmHg 79%
22:00 +8°C° 0 mm 5 mps 747 mmHg 79%
23:00 +8°C° 0 mm 5 mps 747 mmHg 78%

Tomorrow, 21 January, Thursday

Time Temperature Precipitation Wind Pressure Humidity
00:00 +8°C° 0 mm 5 mps 747 mmHg 77%
01:00 +8°C° 0 mm 5 mps 747 mmHg 79%
02:00 +8°C° 0 mm 5 mps 747 mmHg 80%
03:00 +7°C° 0 mm 4 mps 746 mmHg 82%
04:00 +8°C° 0 mm 3 mps 747 mmHg 83%
05:00 +7°C° 0 mm 3 mps 747 mmHg 85%
06:00 +7°C° 0 mm 2 mps 747 mmHg 86%
07:00 +8°C° 0 mm 2 mps 747 mmHg 82%
08:00 +9°C° 0 mm 2 mps 748 mmHg 77%
09:00 +11°C° 0 mm 1 mps 748 mmHg 73%
10:00 +13°C° 0 mm 2 mps 748 mmHg 68%
11:00 +14°C° 0 mm 2 mps 748 mmHg 63%
12:00 +16°C° 0 mm 3 mps 748 mmHg 57%
13:00 +15°C° 0 mm 4 mps 747 mmHg 57%
14:00 +15°C° 0 mm 5 mps 746 mmHg 57%
15:00 +15°C° 0 mm 6 mps 746 mmHg 57%
16:00 +14°C° 0 mm 6 mps 746 mmHg 62%
17:00 +13°C° 0 mm 6 mps 746 mmHg 66%
18:00 +11°C° 0 mm 6 mps 746 mmHg 70%
19:00 +10°C° 0 mm 6 mps 746 mmHg 72%
20:00 +10°C° 0 mm 6 mps 746 mmHg 75%
21:00 +10°C° 0 mm 5 mps 745 mmHg 77%
22:00 +10°C° 0 mm 5 mps 745 mmHg 78%
23:00 +10°C° 0 mm 6 mps 745 mmHg 79%

Day after tomorrow, 22 January, Friday

Time Temperature Precipitation Wind Pressure Humidity
00:00 +10°C° 0 mm 6 mps 745 mmHg 80%
01:00 +9°C° 0 mm 6 mps 745 mmHg 80%
02:00 +9°C° 0 mm 5 mps 745 mmHg 79%
03:00 +9°C° 0 mm 5 mps 745 mmHg 79%
04:00 +8°C° 0 mm 4 mps 745 mmHg 80%
05:00 +8°C° 0 mm 4 mps 745 mmHg 80%
06:00 +8°C° 0 mm 3 mps 745 mmHg 81%
07:00 +9°C° 0 mm 3 mps 744 mmHg 76%
08:00 +10°C° 0 mm 4 mps 743 mmHg 72%
09:00 +11°C° 0 mm 4 mps 743 mmHg 67%
10:00 +10°C° 0.5 mm 7 mps 742 mmHg 70%
11:00 +11°C° 0.5 mm 9 mps 741 mmHg 73%
12:00 +12°C° 0.5 mm 11 mps 740 mmHg 75%
13:00 +12°C° 0.3 mm 10 mps 739 mmHg 68%
14:00 +12°C° 0.3 mm 9 mps 739 mmHg 60%
15:00 +12°C° 0.3 mm 8 mps 738 mmHg 52%
16:00 +11°C° 0 mm 6 mps 739 mmHg 59%
17:00 +10°C° 0 mm 4 mps 739 mmHg 67%
18:00 +8°C° 0 mm 3 mps 740 mmHg 74%
19:00 +8°C° 0 mm 3 mps 741 mmHg 77%
20:00 +7°C° 0 mm 3 mps 742 mmHg 79%
21:00 +7°C° 0 mm 3 mps 743 mmHg 81%
22:00 +5°C° 0 mm 3 mps 744 mmHg 81%
23:00 +6°C° 0 mm 2 mps 745 mmHg 80%

23 January, Saturday

Time Temperature Precipitation Wind Pressure Humidity
00:00 +6°C° 0 mm 2 mps 746 mmHg 79%
01:00 +5°C° 0 mm 2 mps 746 mmHg 77%
02:00 +5°C° 0 mm 2 mps 746 mmHg 75%
03:00 +5°C° 0 mm 2 mps 746 mmHg 73%
04:00 +4°C° 0 mm 2 mps 746 mmHg 73%
05:00 +4°C° 0 mm 2 mps 746 mmHg 73%
06:00 +3°C° 0 mm 3 mps 746 mmHg 72%
07:00 +4°C° 0 mm 3 mps 746 mmHg 68%
08:00 +5°C° 0 mm 3 mps 746 mmHg 63%
09:00 +7°C° 0 mm 3 mps 746 mmHg 58%
10:00 +9°C° 0 mm 3 mps 746 mmHg 54%
11:00 +10°C° 0 mm 4 mps 746 mmHg 51%
12:00 +12°C° 0 mm 4 mps 746 mmHg 47%
13:00 +12°C° 0 mm 4 mps 746 mmHg 49%
14:00 +12°C° 0 mm 3 mps 746 mmHg 52%
15:00 +13°C° 0 mm 2 mps 746 mmHg 54%
16:00 +10°C° 0 mm 2 mps 746 mmHg 62%
17:00 +9°C° 0 mm 1 mps 746 mmHg 70%
18:00 +8°C° 0 mm 1 mps 746 mmHg 78%
19:00 +7°C° 0 mm 2 mps 745 mmHg 79%
20:00 +7°C° 0 mm 2 mps 745 mmHg 80%
21:00 +7°C° 0 mm 3 mps 744 mmHg 81%
22:00 +7°C° 0.1 mm 3 mps 743 mmHg 81%
23:00 +7°C° 0.1 mm 3 mps 743 mmHg 82%

24 January, Sunday

Time Temperature Precipitation Wind Pressure Humidity
00:00 +8°C° 0.1 mm 3 mps 742 mmHg 83%
01:00 +7°C° 0.1 mm 2 mps 741 mmHg 84%
02:00 +7°C° 0.1 mm 2 mps 741 mmHg 86%
03:00 +6°C° 0.1 mm 2 mps 740 mmHg 87%
04:00 +6°C° 0.3 mm 2 mps 741 mmHg 89%
05:00 +6°C° 0.3 mm 2 mps 741 mmHg 90%
06:00 +6°C° 0.3 mm 2 mps 742 mmHg 91%
07:00 +6°C° 0 mm 2 mps 743 mmHg 88%
08:00 +7°C° 0 mm 3 mps 745 mmHg 85%
09:00 +8°C° 0 mm 3 mps 746 mmHg 81%
10:00 +9°C° 0 mm 3 mps 747 mmHg 75%
11:00 +10°C° 0 mm 3 mps 747 mmHg 68%
12:00 +12°C° 0 mm 3 mps 748 mmHg 61%
13:00 +11°C° 0 mm 3 mps 748 mmHg 64%
14:00 +12°C° 0 mm 2 mps 748 mmHg 66%
15:00 +12°C° 0 mm 2 mps 749 mmHg 69%
16:00 +10°C° 0.1 mm 2 mps 749 mmHg 75%
17:00 +9°C° 0.1 mm 1 mps 749 mmHg 82%
18:00 +8°C° 0.1 mm 1 mps 750 mmHg 88%
19:00 +8°C° 0 mm 1 mps 750 mmHg 88%
20:00 +8°C° 0 mm 1 mps 751 mmHg 88%
21:00 +7°C° 0 mm 1 mps 751 mmHg 88%
22:00 +7°C° 0 mm 1 mps 751 mmHg 87%
23:00 +7°C° 0 mm 1 mps 751 mmHg 86%

25 January, Monday

Time Temperature Precipitation Wind Pressure Humidity
00:00 +6°C° 0 mm 2 mps 752 mmHg 85%
01:00 +6°C° 0 mm 2 mps 752 mmHg 84%
02:00 +7°C° 0 mm 1 mps 752 mmHg 83%
03:00 +7°C° 0 mm 1 mps 752 mmHg 82%
04:00 +7°C° 0 mm 1 mps 752 mmHg 83%
05:00 +6°C° 0 mm 1 mps 752 mmHg 83%
06:00 +6°C° 0 mm 1 mps 752 mmHg 84%
07:00 +7°C° 0 mm 1 mps 752 mmHg 80%
08:00 +8°C° 0 mm 1 mps 753 mmHg 76%
09:00 +9°C° 0 mm 1 mps 753 mmHg 72%
10:00 +10°C° 0 mm 1 mps 753 mmHg 67%
11:00 +11°C° 0 mm 1 mps 753 mmHg 61%
12:00 +13°C° 0 mm 1 mps 752 mmHg 55%
13:00 +13°C° 0 mm 2 mps 752 mmHg 56%
14:00 +13°C° 0 mm 2 mps 752 mmHg 57%
15:00 +13°C° 0 mm 2 mps 752 mmHg 57%
16:00 +11°C° 0 mm 1 mps 753 mmHg 67%
17:00 +9°C° 0 mm 1 mps 753 mmHg 77%
18:00 +7°C° 0 mm 0 mps 754 mmHg 86%
19:00 +8°C° 0 mm 1 mps 754 mmHg 86%
20:00 +7°C° 0 mm 1 mps 755 mmHg 87%
21:00 +7°C° 0 mm 1 mps 755 mmHg 87%
22:00 +7°C° 0 mm 1 mps 755 mmHg 86%
23:00 +7°C° 0 mm 1 mps 756 mmHg 86%
Show more